Showing default

IRIDIUM 38, 25043

Orbit data source: Space-Track

IRIDIUM 38, 25043 is a payload satellite owned by Iridium (US) in LEO that was launched on Sun, 09 Nov 1997 UTC via a DELTA 7920-10C launch vehicle from the Air Force Western Test Range (AFWTR). Payload-class satellites include a variety of spacecraft equipped with specific instruments for various scientific and technological missions. These include communications satellites like Starlink; space stations such as the ISS; scientific satellites like the Hubble; Earth observation satellites from companies like Planet Labs, Umbra, and HawkEye 360; GPS; miniature CubeSats for education and research; and military/defense satellites.

Loading next visibility...
Identifier
25043, 1997-069E
Orbit
LEO
Country
Flag of USUS
Related business
Manufacturer
MOTO/LMMS
Mission
Non-operational Commercial Communications
Bus & Motor
LM700, Unknown motor
Mass
662 kg wet, 556 kg dry
Launch date (UTC)
1997-11-09 (28 years ago)
Launch vehicle
DELTA 7920-10C
Launch site
Air Force Western Test Range (AFWTR)
Object type
Payload
Rocket body
Debris
Shape & HBR
Box + 2 Pan, 4.2 m
Radar Cross Section
5.666 m², Large (>1 m²)

Expand to show TLE details & history
Last TLE update: 19 hours ago

TLE from 19 hours ago
0 IRIDIUM 38
1 25043U 97069E   25259.10727756  .00000436  00000-0  13730-3 0  9993
2 25043  86.4022 194.9246 0003331 119.3576 240.7955 14.38191028459024
Epoch: 2025-09-16T02:34Z
TLE epoch observation values (Epoch: 2025-09-16T02:34:28.781Z)
Latitude
-0.00001°
Longitude
161.00235°
Altitude
768.7 km
Speed
7.469 km/s
True Right ascension
12h 59m 41s
True Declination
0° 00' 00"
Sunlit
Object was in daylight at epoch
Visualization orbit readout
Latitude
Unknown
Longitude
Unknown
Altitude
Unknown
Speed
Unknown
Apparent Right ascension
Unknown
Apparent Declination
Unknown
Sunlit
N/A
Visualization observer readout
Local Sidereal Time
14:02:53
Azimuth
Unknown
Elevation
Unknown
Doppler factor
Unknown
Orbital elements
Apogee altitude
763.819 km
Perigee altitude
759.062 km
Semi-major axis
7,139.577 km
Eccentricity
0.00033
Inclination
86.4022°
RAAN
194.9246°
Arg. of periapsis
119.3576°
True anomaly
240.76219°
Mean anomaly
240.7955°
Eccentric anomaly
240.77884°
Mean motion
3.59778 °/min
Orbital period
100.06 mins
BSTAR
0.0001373
Loading maneuver chart data...
Computing Atmospheric mass density...
Loading historical data...
Loading historical data...
Loading historical data...
Loading historical data...
Loading historical data...
Loading historical data...
Loading historical data...

Documentation

Showing up to 5 results
|